SWOT

Last updated on Wed Sep 17 2025 00:02:31 GMT+0000 (Coordinated Universal Time)

1 54754U 22173A 25259.53286324 .00000048 00000+0 34414-4 0 9997 2 54754 77.6103 44.7106 0000166 3.4823 356.6330 14.00173921140858
UTC large
Height (km)
Speed (km/s)
/
Latitude / Longitude
Inclination (degrees)
Orbital Period (minutes)
Azimuth
Elevation
Range (km)
Doppler Factor

Next 0 passes for location: London (51.5072 / 0.1276)

Sorry there are no passes over London.